GFSNGP_850_thetae_231.txt.gz
Theta_e
318 317 317 318 318 319 321 322 325 327 332 336 347 346 346 347 347 347 348 348 348 349 351 350 347 347 346 347 347 347 347 348 348 348 348 348 348 344 330 329 330 333 338 343
318 317 319 319 319 319 331 337 337 339 336 345 342 342 340 340 341 342 343 343 341 345 352 348 346 347 347 347 347 348 348 348 348 348 349 348 348 347 339 331 332 335 340 343
319 318 319 319 325 333 335 335 335 339 341 340 339 337 336 337 338 339 338 341 344 342 341 352 352 348 345 347 348 349 348 349 349 349 349 348 347 348 347 343 340 339 341 344
318 319 317 328 332 334 337 336 335 336 338 340 337 336 335 334 335 336 339 341 343 345 343 345 347 353 350 346 347 347 348 349 348 348 349 349 348 348 347 348 347 347 346 344
317 317 316 321 328 330 333 335 334 335 336 338 337 339 335 331 334 336 339 340 342 344 346 346 346 348 353 349 347 348 348 349 344 345 346 347 347 347 347 348 348 348 347 345
316 315 314 322 326 326 327 336 329 334 336 337 338 343 336 331 333 335 338 339 341 344 346 346 341 341 346 355 349 348 349 349 348 347 347 346 345 345 347 348 349 350 350 348
315 316 316 323 323 326 335 334 327 330 335 336 338 336 330 329 330 332 335 338 339 340 339 339 339 342 348 354 351 348 348 349 348 348 348 348 348 347 347 348 349 350 350 350
313 315 315 320 325 330 323 323 325 326 332 332 330 330 328 329 328 332 335 337 339 340 342 342 340 345 344 346 350 347 348 348 348 347 348 347 348 348 348 348 350 351 350 349
314 318 319 318 316 314 315 320 322 326 328 331 329 327 327 326 325 328 333 336 337 337 340 342 339 337 338 337 342 348 349 351 349 348 347 349 348 348 349 349 349 350 349 348
317 319 319 315 314 315 315 318 325 327 329 329 329 326 326 324 324 326 329 333 336 337 339 341 341 342 343 345 346 345 345 343 342 350 353 353 353 352 351 350 352 354 350 345
314 316 316 315 314 312 318 317 325 327 329 327 327 326 324 321 320 324 327 329 335 336 339 340 342 342 342 345 340 336 334 336 339 335 347 348 346 354 357 352 354 353 351 351
315 311 310 314 312 312 315 316 323 325 327 326 324 322 323 318 315 318 322 325 332 334 337 340 341 340 343 342 345 338 334 334 334 334 335 346 340 348 353 351 351 352 353 353
311 308 309 309 311 313 314 316 321 324 325 325 324 324 323 322 316 315 318 321 326 327 331 335 337 340 342 343 344 345 338 336 334 335 335 337 336 337 353 355 356 356 356 357
309 309 309 310 313 314 314 316 320 322 324 325 323 322 320 319 317 316 316 318 320 322 326 330 334 336 336 340 342 343 344 347 347 343 341 332 337 350 352 356 355 353 351 355
308 307 308 308 310 313 314 315 317 320 321 321 321 321 320 319 316 315 316 318 318 317 318 321 328 332 335 335 339 341 342 344 347 350 351 351 350 351 356 357 354 353 343 346
306 306 308 308 310 312 313 314 314 318 320 319 319 319 319 319 318 315 316 317 317 316 316 316 318 324 332 336 337 340 342 344 346 348 349 350 352 354 352 352 353 350 349 347
306 308 309 311 312 312 312 312 315 316 318 320 318 317 315 315 316 315 316 317 317 316 316 316 317 321 327 333 336 339 340 339 340 345 345 345 346 346 345 347 346 346 345 345
307 309 309 311 311 311 311 311 315 315 317 319 316 314 314 313 312 314 316 316 315 314 314 315 316 319 324 331 333 336 337 339 338 338 337 338 340 342 341 343 343 342 340 339
307 307 308 309 309 309 309 312 313 315 317 317 313 312 312 311 312 314 314 312 312 312 313 314 315 317 321 327 330 333 335 335 336 335 336 336 337 336 337 337 337 336 336 337
306 307 308 308 308 308 309 310 312 315 315 312 309 308 309 309 310 313 312 310 309 309 310 311 313 315 318 323 327 329 331 332 333 334 333 332 334 335 335 335 335 334 333 335
306 307 307 307 308 309 311 311 312 311 307 305 305 304 305 307 309 312 310 309 307 307 307 307 309 311 313 318 323 325 327 328 329 330 330 330 331 332 333 333 334 334 334 333
307 306 306 307 308 308 308 308 308 308 306 305 305 304 304 304 305 309 310 307 307 307 307 306 306 306 310 313 317 320 320 323 325 325 326 327 327 329 330 331 332 332 332 332
306 307 306 306 306 305 305 305 304 304 304 305 305 306 306 306 304 304 306 308 307 306 306 306 305 305 307 309 309 311 312 315 318 320 321 321 322 322 323 325 326 327 328 327
307 307 307 307 306 305 306 305 304 304 304 304 303 303 303 303 303 303 305 307 306 306 306 306 305 305 304 304 303 302 301 302 304 310 315 318 314 315 317 318 318 318 317 320
306 307 307 307 307 305 305 305 305 305 305 305 304 304 304 303 304 303 303 305 306 306 306 305 305 305 305 304 303 303 303 301 299 299 299 302 305 309 307 306 307 306 308 315
305 305 305 306 307 307 307 306 306 306 305 306 305 305 304 303 303 303 303 303 302 302 303 305 305 305 304 304 303 303 303 302 302 301 301 300 300 300 299 299 300 300 300 301
304 304 304 304 305 306 306 306 306 306 306 306 305 304 304 303 302 302 302 302 302 302 302 303 302 302 303 304 304 303 303 301 302 302 302 301 300 300 300 300 300 299 299 298

GFSNGP_850_thetae_234.txt.gz
Theta_e
322 322 321 322 322 322 323 325 327 329 330 336 348 347 345 347 350 350 351 351 354 357 357 355 354 355 354 352 353 354 355 353 349 348 347 348 348 348 347 344 333 330 334 334
323 321 321 321 321 321 321 323 329 329 333 345 344 341 342 342 345 347 346 346 348 351 354 354 356 356 356 356 356 355 355 354 354 355 354 348 348 348 348 346 336 331 331 340
322 322 321 322 322 321 323 327 329 328 340 341 344 339 338 339 340 342 344 342 342 344 348 352 354 354 355 356 357 354 348 350 350 354 349 349 349 348 347 347 340 332 332 345
320 321 322 322 332 331 331 331 335 335 337 341 342 338 336 336 338 340 341 340 344 345 342 345 349 349 352 354 355 357 356 356 356 349 349 350 349 349 347 347 346 340 337 340
318 319 319 319 327 329 331 330 334 337 336 339 340 339 339 334 335 335 336 337 342 344 344 345 344 345 348 354 355 354 357 358 359 358 350 350 350 349 347 348 348 347 351 355
317 315 315 327 328 328 330 331 335 334 336 338 339 345 343 334 332 334 335 338 339 340 344 346 342 341 345 355 359 355 357 357 359 360 360 355 351 349 348 348 350 353 357 360
316 317 317 325 325 327 331 332 328 330 332 335 342 340 335 333 332 331 333 335 339 341 341 341 340 342 346 350 354 353 354 356 357 359 361 362 359 353 348 347 357 350 359 360
317 317 317 322 324 329 323 323 327 328 327 335 335 332 333 331 332 331 331 334 338 340 340 342 340 344 343 347 350 348 350 352 354 351 359 361 360 359 358 358 351 350 353 362
316 322 322 322 322 319 318 319 322 322 326 331 332 332 330 329 332 332 332 333 336 340 341 341 337 340 340 340 348 352 355 352 350 349 355 357 360 361 358 362 362 361 361 360
318 318 318 320 319 316 316 318 321 321 328 330 330 331 331 329 328 330 330 330 333 337 339 339 341 342 344 344 345 343 344 340 337 340 342 348 353 356 356 359 357 359 359 359
318 317 317 319 319 316 318 318 321 322 327 327 329 329 328 326 325 326 328 327 328 332 336 334 338 342 344 345 340 337 342 344 345 344 345 341 342 347 352 351 355 356 357 360
316 316 318 318 318 314 318 319 321 321 325 326 326 325 322 320 321 321 324 325 326 328 329 331 335 337 341 345 342 336 338 340 339 337 337 338 337 339 343 343 345 356 355 355
314 313 313 313 312 314 317 317 320 321 323 324 323 324 323 320 317 317 321 323 324 324 326 329 330 333 338 341 342 345 345 343 339 335 331 333 336 337 339 340 339 345 348 349
311 312 313 313 313 316 318 317 318 322 323 321 322 322 320 318 316 317 320 320 321 319 321 326 328 332 335 336 339 341 342 346 348 345 340 333 335 335 339 340 342 343 346 349
311 311 311 311 312 313 316 318 320 318 320 319 316 319 319 316 315 317 317 318 320 321 321 318 324 328 333 335 337 340 342 343 346 347 349 347 336 336 337 340 340 341 334 346
311 310 309 310 311 311 316 315 318 319 317 318 320 320 320 318 315 317 318 317 320 320 319 320 318 324 331 333 335 339 340 342 345 345 345 347 347 344 344 345 345 342 342 344
310 311 311 311 312 312 315 315 317 319 318 318 318 318 319 316 317 318 318 318 320 318 319 318 318 321 327 332 335 335 338 339 338 341 342 343 344 345 345 343 343 344 346 345
309 310 311 312 313 313 314 315 316 317 319 318 317 315 315 315 317 317 316 316 318 317 318 317 316 320 325 330 332 334 334 336 338 337 337 338 339 342 343 343 343 342 342 342
309 310 310 311 310 312 314 314 316 317 317 315 315 314 312 314 316 315 314 315 315 315 314 314 315 318 321 328 330 332 333 333 333 335 336 336 336 335 337 339 340 341 340 339
308 308 308 308 309 310 313 314 314 314 315 312 310 310 312 313 315 315 314 313 312 312 311 310 315 316 318 324 327 329 330 331 331 331 333 334 334 334 333 334 334 334 333 334
307 307 308 309 309 309 310 310 312 311 307 307 308 309 310 310 312 314 313 312 310 310 309 310 309 315 316 316 322 324 326 326 328 329 329 331 331 333 334 334 334 333 332 332
308 307 307 308 308 309 310 311 309 306 305 304 304 305 307 309 312 310 310 311 309 308 309 309 308 310 312 314 315 318 320 321 323 324 325 326 328 330 331 332 333 332 331 331
308 307 306 306 306 307 307 306 306 305 305 305 305 305 307 307 307 309 309 309 309 307 307 306 305 306 306 307 308 310 311 314 316 318 320 321 322 324 324 325 327 327 326 326
309 308 308 306 305 305 305 306 305 306 306 306 307 306 306 306 307 308 307 307 306 306 306 305 305 305 306 307 306 305 305 306 307 308 311 313 314 317 314 317 319 319 319 321
309 309 308 308 306 306 306 305 306 307 307 307 306 306 306 307 306 306 307 307 306 307 307 306 306 306 306 306 306 305 304 302 302 302 302 303 302 301 301 303 306 307 310 315
309 308 309 309 308 307 306 307 307 307 308 307 307 306 306 305 305 305 304 305 305 305 307 306 306 306 306 305 305 305 305 305 304 303 302 301 301 300 301 299 299 299 300 300
307 307 307 307 308 309 308 309 308 308 307 307 307 307 306 305 304 304 305 305 304 304 304 304 304 303 304 305 306 305 305 304 304 304 304 304 304 303 302 302 301 300 300 298

GFSNGP_850_thetae_237.txt.gz
Theta_e
324 325 324 325 325 324 324 325 327 328 329 351 351 348 347 348 351 353 353 355 359 360 361 358 355 355 355 355 355 355 356 359 359 359 360 358 356 351 351 349 348 344 349 351
326 324 324 323 323 323 323 324 325 327 330 344 345 344 346 345 345 349 350 349 351 353 358 359 361 360 359 358 358 357 358 360 360 360 361 359 360 361 360 359 353 352 348 347
325 324 323 323 323 323 323 323 323 326 333 339 343 345 344 344 342 343 345 347 348 348 350 355 357 358 360 361 360 359 359 359 360 360 361 361 361 360 361 360 360 355 351 349
324 324 325 324 324 327 326 323 324 327 331 340 342 342 342 341 341 341 341 342 344 346 346 348 352 353 354 357 360 361 361 361 360 360 361 362 361 361 361 360 356 360 356 350
321 321 322 322 327 328 326 326 332 330 334 336 340 341 343 341 339 338 339 340 340 342 345 348 349 347 348 354 360 359 361 362 362 361 362 363 363 363 362 361 355 361 360 357
319 319 319 329 330 328 328 326 335 336 336 336 339 343 346 340 337 335 335 337 339 341 344 347 344 344 347 354 362 359 358 360 362 363 363 363 362 361 362 362 360 361 362 361
317 318 319 328 327 327 324 329 331 331 332 334 339 341 339 338 336 335 334 337 340 342 343 342 342 349 351 348 357 358 360 363 362 362 362 361 362 362 363 362 361 358 356 360
318 318 318 325 324 326 329 329 328 327 327 330 332 338 339 336 336 336 336 336 338 342 342 343 342 348 349 348 350 351 353 357 361 363 361 362 361 362 364 362 363 359 360 357
323 325 326 324 326 325 324 325 327 325 325 326 330 334 334 334 332 335 335 335 335 338 340 341 342 341 343 348 351 355 356 359 358 359 359 359 360 360 361 362 362 361 359 360
318 318 319 320 322 322 323 325 324 323 325 328 330 331 333 334 333 333 334 333 333 335 338 338 340 342 344 343 345 350 351 352 352 355 358 355 358 355 356 355 357 356 358 358
320 319 318 320 320 321 321 323 324 324 325 327 329 328 327 328 328 329 332 333 332 334 334 335 337 339 342 342 341 347 346 347 347 348 346 347 348 351 348 350 350 349 348 350
319 318 319 321 321 320 319 322 323 323 325 326 326 325 324 325 324 325 327 331 331 331 332 334 334 336 341 343 341 342 347 347 343 348 348 348 345 340 339 339 345 347 348 347
317 317 317 317 317 317 318 321 322 324 324 325 324 325 324 322 321 322 326 326 328 327 328 331 334 334 335 340 345 342 346 342 345 347 341 342 342 341 341 341 338 341 342 342
315 314 314 315 316 316 319 320 320 322 322 322 322 322 321 319 319 320 323 324 324 325 326 327 330 331 333 336 339 342 343 344 347 343 344 349 343 343 345 350 345 342 341 342
314 313 313 314 315 317 318 319 320 320 320 318 318 318 318 319 320 319 320 321 323 323 324 325 326 329 331 334 337 339 339 340 343 346 347 348 345 346 344 344 341 344 342 340
315 314 312 312 312 313 315 318 319 321 320 317 316 317 318 317 319 320 319 319 319 322 322 322 325 326 328 331 335 339 338 340 342 344 346 347 347 347 346 346 346 341 338 336
314 313 313 313 313 313 314 317 319 321 321 320 320 319 318 318 320 319 319 321 320 319 320 320 323 324 325 327 332 334 336 338 338 338 340 343 345 345 345 344 345 347 344 344
313 313 313 314 313 313 315 316 318 319 321 321 319 318 317 319 319 318 317 318 319 318 316 318 319 323 322 327 330 333 335 335 336 337 338 338 338 342 343 344 345 345 345 344
312 312 312 312 314 315 315 315 317 316 319 318 316 315 317 318 319 318 316 316 315 314 313 316 319 322 319 325 328 330 333 335 335 335 335 335 334 335 338 339 340 340 340 340
311 311 312 312 313 314 315 316 316 316 317 316 314 314 316 318 318 317 316 314 313 312 313 314 319 320 318 320 325 327 329 331 331 332 332 333 333 332 333 334 334 336 336 336
311 311 311 312 313 313 314 314 315 314 313 313 315 315 315 316 318 317 315 313 311 311 311 311 312 316 317 316 316 323 325 326 328 329 329 330 331 332 332 333 334 334 334 333
310 310 310 311 310 312 312 312 310 310 310 309 311 313 314 315 314 314 314 311 310 309 309 308 308 309 312 315 314 317 319 321 322 323 325 326 326 328 328 328 330 329 329 329
310 309 308 309 309 309 310 310 309 307 306 307 307 309 310 311 313 313 312 310 309 308 308 307 308 308 309 310 311 311 312 313 316 317 318 320 320 322 321 321 322 322 322 323
310 309 308 308 308 309 307 306 306 306 306 308 308 309 310 311 311 310 308 307 307 307 306 307 307 308 309 309 308 307 309 308 307 309 312 312 313 315 316 315 316 316 317 318
310 309 308 308 307 307 308 308 308 308 309 309 310 310 309 309 310 309 309 308 308 309 309 308 307 308 309 309 309 307 305 305 305 304 304 304 305 306 308 309 310 308 310 311
311 311 310 309 309 309 308 308 309 308 308 307 308 307 307 307 307 307 307 308 308 308 307 306 307 308 308 308 308 308 308 307 306 305 305 305 303 303 303 301 300 301 303 302
309 310 310 310 310 309 309 310 309 309 308 308 307 307 307 306 306 307 307 307 307 306 306 306 306 304 305 308 308 307 306 306 307 307 307 307 306 306 305 304 303 303 301 301

GFSNGP_850_thetae_240.txt.gz
Theta_e
323 325 326 326 324 325 325 327 328 332 354 352 345 347 348 348 351 353 353 353 355 356 359 363 358 357 354 354 353 352 353 355 356 356 356 354 354 353 350 350 350 350 348 345
324 325 325 325 325 325 325 325 326 327 346 346 340 345 346 347 347 347 347 348 350 351 354 359 361 362 360 358 358 358 357 356 357 359 359 360 360 359 357 355 353 353 351 351
323 324 326 325 325 324 324 324 324 325 338 338 343 345 344 344 346 345 344 344 345 346 348 352 355 358 361 362 361 359 359 361 359 360 361 361 361 361 359 359 358 358 356 355
325 326 327 325 325 324 324 324 328 325 333 340 340 340 342 343 343 343 342 342 342 344 346 347 351 352 355 359 362 363 360 359 360 360 360 361 361 361 360 360 360 360 358 357
325 324 324 323 328 326 328 336 338 338 339 336 339 336 343 343 341 340 339 340 340 341 345 347 346 349 346 351 357 360 362 363 362 361 361 361 361 361 361 361 361 361 360 359
321 321 321 329 330 329 328 333 334 337 338 338 337 335 343 341 339 338 338 339 340 342 343 345 345 347 351 352 358 364 362 362 363 363 362 361 362 362 361 361 361 361 360 359
319 320 322 329 328 325 327 334 332 332 333 334 338 339 341 340 338 337 337 338 340 342 342 342 344 347 350 350 354 361 360 362 362 361 362 363 361 362 361 361 361 362 361 359
319 318 319 326 326 328 332 331 330 331 331 332 332 335 337 337 336 336 336 336 337 341 341 340 344 344 347 348 349 352 358 361 363 364 362 362 361 362 362 362 361 361 360 356
323 329 327 325 328 327 327 328 329 328 328 329 331 335 334 334 334 334 334 335 335 337 339 338 339 341 343 343 350 353 355 356 356 358 359 361 364 361 360 361 360 359 360 358
320 320 320 322 324 323 323 325 326 327 327 328 329 333 331 332 332 332 333 334 335 334 335 336 338 339 340 342 347 350 352 354 357 357 359 358 357 358 357 359 359 359 358 358
320 320 319 320 320 321 323 322 324 326 327 328 329 329 327 327 328 329 330 332 333 333 333 333 336 337 339 341 343 346 348 347 347 350 354 355 358 359 356 354 354 356 353 351
320 321 321 322 323 322 321 321 323 324 326 327 327 327 327 326 325 326 329 329 330 330 331 332 332 333 337 339 340 341 345 347 345 347 348 350 349 350 347 346 343 343 344 348
319 319 319 319 320 320 320 320 321 323 325 326 326 325 325 324 322 325 326 327 327 329 328 330 331 331 332 336 340 340 341 343 345 347 345 343 343 343 344 344 340 341 343 339
317 318 317 316 317 317 317 318 321 323 323 323 323 321 321 320 320 322 323 325 325 326 326 328 328 328 328 333 336 339 339 340 344 343 347 347 349 347 348 346 345 343 344 341
317 315 315 316 317 317 318 319 321 321 322 321 321 320 319 320 321 320 320 323 324 324 323 325 325 325 326 331 333 335 337 340 341 342 343 345 346 345 347 346 346 341 343 342
317 316 315 315 314 314 315 317 319 320 322 320 319 318 319 318 320 321 320 321 319 319 321 319 323 323 323 330 332 334 337 338 340 340 343 344 345 346 346 345 345 343 339 341
317 317 316 315 314 314 313 314 317 320 319 321 320 317 317 318 320 319 320 321 319 319 317 319 321 323 321 329 332 333 333 336 336 337 339 341 341 341 342 343 344 343 341 339
316 316 315 315 315 315 315 315 317 319 321 320 319 319 319 320 318 318 319 319 319 317 314 318 321 321 319 326 329 332 332 333 333 335 336 336 336 338 338 341 342 340 339 338
314 314 314 314 315 316 316 317 318 319 319 320 320 319 318 319 318 315 316 316 315 314 313 319 321 320 317 323 326 328 331 330 331 332 334 333 333 333 335 337 338 338 337 339
313 313 313 314 314 315 316 317 318 318 318 318 317 317 319 319 318 316 315 313 312 312 311 318 319 318 316 319 326 327 328 329 329 329 331 333 332 331 332 332 332 335 336 338
312 312 313 314 314 315 316 317 317 316 316 316 316 317 318 319 318 317 314 312 311 310 310 311 317 317 316 315 320 321 322 324 326 327 329 330 331 332 331 331 331 332 332 332
311 312 312 313 314 314 314 314 314 314 315 315 315 316 317 317 316 314 312 311 309 309 309 308 311 312 314 314 311 313 318 321 323 324 324 325 325 327 327 326 326 327 327 327
311 311 312 311 313 313 313 311 310 312 312 312 312 313 314 314 314 314 312 310 309 308 308 308 309 310 310 311 311 310 311 316 318 319 319 320 321 321 321 321 319 320 321 321
311 311 311 310 310 311 311 310 309 308 308 308 310 310 311 312 311 311 309 308 309 308 307 308 309 310 310 309 309 309 308 308 308 311 315 315 315 316 317 316 314 314 316 318
310 309 309 310 310 309 309 309 308 309 310 310 311 311 310 311 310 310 310 309 309 310 310 309 309 309 310 310 308 307 307 306 306 305 304 306 306 307 310 310 308 309 308 310
311 310 310 309 309 310 310 310 310 310 309 309 309 309 309 309 309 309 309 309 309 308 308 307 307 308 309 309 309 310 309 308 307 307 307 306 306 305 304 302 303 305 304 304
309 310 310 310 309 308 309 309 310 309 309 309 308 308 308 308 308 308 308 308 308 308 308 308 307 306 307 309 309 308 308 308 308 309 308 308 308 307 306 305 305 304 303 303

GFSNGP_850_thetae_246.txt.gz
Theta_e
317 319 320 321 322 322 319 318 330 348 344 338 338 345 345 343 343 342 343 346 349 348 347 348 346 350 349 347 345 344 346 353 351 355 352 350 347 348 349 348 349 348 347 347
320 321 320 321 324 330 321 341 345 342 340 337 338 343 343 341 340 339 340 341 344 348 348 345 349 351 349 338 338 340 338 347 352 353 356 352 352 350 351 350 351 351 350 349
318 321 321 321 324 334 340 340 340 341 338 339 342 341 339 338 337 338 338 340 342 344 346 347 349 348 347 345 340 338 345 349 349 353 355 353 355 355 354 354 355 357 356 354
320 321 321 319 333 338 339 339 341 341 341 341 340 339 338 337 337 338 338 340 341 342 343 345 346 347 348 349 342 341 351 351 356 358 358 356 358 359 359 360 359 360 359 358
319 321 320 323 330 330 337 337 335 339 341 341 340 339 338 337 336 337 337 339 340 341 341 342 343 345 346 351 352 354 358 353 352 357 360 360 361 361 361 361 361 361 360 359
318 321 321 320 328 333 331 335 333 334 334 336 338 336 337 337 336 335 335 335 338 339 340 340 340 343 347 349 349 350 356 358 359 358 357 358 359 361 360 361 361 359 359 359
313 317 321 326 329 325 326 328 332 331 332 333 334 336 337 336 336 335 334 333 334 336 337 338 339 340 342 345 346 346 352 353 354 356 355 356 358 361 360 359 359 359 359 359
311 315 316 328 328 325 328 332 331 331 331 335 336 337 336 335 334 334 333 333 333 334 335 336 337 338 340 341 343 346 350 354 357 356 353 355 357 359 360 360 360 361 359 357
313 313 324 328 330 330 331 330 328 325 328 333 333 333 334 334 334 334 334 333 333 333 334 334 335 337 338 338 341 345 348 350 354 357 358 361 360 358 359 361 361 360 358 357
323 325 325 326 330 329 329 328 326 323 322 324 330 330 330 332 332 332 333 333 332 332 332 333 333 334 336 338 339 343 346 347 349 352 356 358 358 358 359 359 360 359 356 352
317 322 323 324 326 326 325 323 323 322 320 318 323 329 328 328 329 329 329 330 331 330 330 331 331 332 333 336 338 340 344 344 346 348 349 350 351 353 354 356 356 357 356 355
315 322 321 323 323 323 323 324 324 323 322 321 322 326 327 326 326 326 327 327 328 329 329 329 329 329 330 331 337 337 340 343 344 345 346 349 349 350 350 350 349 347 346 347
320 323 322 322 323 322 321 321 322 322 321 320 319 324 325 325 325 325 326 326 326 326 327 327 328 328 328 326 334 337 337 340 341 344 345 346 346 345 344 344 345 343 341 340
321 321 321 321 319 318 317 318 318 321 322 321 320 322 324 325 324 325 325 325 325 323 322 324 324 323 323 325 329 333 334 337 339 342 344 343 345 345 346 346 344 343 339 341
319 318 318 316 316 316 316 315 316 318 320 319 319 322 322 323 322 321 324 324 324 320 319 320 321 321 320 324 328 330 332 334 337 339 342 342 342 342 344 344 344 341 341 340
316 316 317 317 315 314 315 315 317 319 319 318 319 321 321 321 321 320 321 320 319 319 319 320 320 319 318 324 328 329 329 333 335 335 337 338 340 342 343 342 343 342 343 339
315 315 315 315 315 315 315 315 315 314 317 318 319 320 320 319 320 320 320 321 319 318 317 319 319 317 317 322 327 327 328 330 332 333 334 336 337 339 340 340 341 342 340 340
318 317 316 316 316 315 315 314 314 314 317 319 318 319 319 318 319 319 319 318 315 315 317 320 319 317 315 322 325 325 327 329 330 330 332 333 334 334 336 337 339 339 339 338
317 317 316 316 316 315 315 317 317 316 316 317 318 319 318 318 318 317 316 313 312 312 316 320 318 316 314 318 322 324 326 327 328 330 330 332 332 332 334 334 335 336 337 337
316 316 315 314 314 315 316 316 317 316 315 317 319 319 315 317 317 315 314 314 311 312 309 315 316 314 313 313 316 323 325 326 327 328 329 331 331 330 331 332 332 333 334 335
315 313 313 315 315 315 317 317 317 317 318 318 317 317 318 317 316 313 313 312 312 312 311 310 313 312 310 312 314 319 322 324 325 327 327 329 329 329 330 330 330 330 331 331
313 312 314 314 315 315 316 316 316 317 317 317 317 318 318 318 313 312 309 310 308 309 309 308 309 311 310 308 310 316 319 321 323 324 324 325 326 326 327 327 328 327 328 329
311 312 312 313 314 314 314 315 315 315 316 316 317 317 315 314 315 312 309 309 308 308 308 308 310 309 309 307 307 311 313 316 317 318 318 320 321 321 321 322 323 321 322 323
311 311 311 312 314 313 313 313 314 313 313 314 314 314 315 314 313 311 308 308 308 308 308 308 310 310 309 308 308 307 307 307 308 311 314 316 316 315 316 317 318 317 316 317
310 310 310 312 312 311 311 311 312 311 311 311 311 311 313 312 310 309 309 309 309 309 307 307 310 310 309 309 309 309 308 308 307 305 305 306 310 311 312 313 313 312 312 311
309 310 309 309 310 310 310 309 309 310 311 311 311 311 311 310 309 309 309 309 307 307 307 306 306 308 309 308 308 308 308 308 308 307 306 306 305 304 305 306 303 303 305 307
309 309 310 310 310 310 310 310 310 311 309 309 310 310 310 309 309 309 309 308 308 308 307 307 306 306 307 307 308 308 308 308 308 308 308 307 306 305 304 304 303 302 300 299